Flag for U.S.A. Weather past 2 weeks in Charlotte, North Carolina, U.S.A.

Now
68 °F

Passing clouds.


Feels Like: 68 °F
Forecast: 55 / 74 °F
Wind: 5 mph from East

Location: Charlotte / Douglas International Airport

Current Time: Sep 22, 2014 at 10:20:20 PM

Latest Report: Sep 22, 2014 at 9:52 PM


Visibility: 10 mi

Pressure: 30.13 "Hg

Humidity: 63%

Dew point: 55 °F

Location of CharlotteLocation

Historic Weather in Charlotte — Graph

°F

Charlotte temperature yesterday

Maximum temperature yesterday: 85 °F (at 2:52 PM)
Minimum temperature yesterday: 59 °F (at 6:52 AM)
Average temperature yesterday: 72 °F

Past Weeks' High & Low Weather Summary

 TemperatureHumidityPressure
High89 °F (Sep 12, 4:52 PM)97% (Sep 18, 3:52 AM)30.27 "Hg (Sep 18, 3:52 AM)
Low59 °F (Sep 21, 6:52 AM)41% (Sep 20, 3:52 PM)29.83 "Hg (Sep 21, 4:52 PM)
Average72 °F77%30.06 "Hg
* Reported Sep 7 8:52 PM — Sep 22 8:52 PM, Charlotte, Weather by CustomWeather, © 2014

Note: Actual official high and low records may vary slightly from our data, if they occured in-between our weather recording intervals... More about our weather records

Advertising

Charlotte weather history for previous 24 hours

 ConditionsComfort  
Time TempWeatherWind HumidityBarometerVisibility
8:52 PM
Sep 22
70 °FPassing clouds.5 mph53%30.11 "Hg10 mi
7:52 PM70 °FBroken clouds.5 mph53%30.09 "Hg10 mi
6:52 PM71 °FBroken clouds.6 mph55%30.07 "Hg10 mi
5:52 PM72 °FPartly sunny.6 mph53%30.05 "Hg10 mi
4:52 PM73 °FPartly sunny.7 mph51%30.03 "Hg10 mi
3:52 PM74 °FPartly sunny.7 mph43%30.04 "Hg10 mi
2:52 PM76 °FSunny.7 mph42%30.04 "Hg10 mi
1:52 PM74 °FScattered clouds.6 mph43%30.06 "Hg10 mi
12:52 PM73 °FBroken clouds.9 mph46%30.06 "Hg10 mi
11:52 AM72 °FPartly sunny.10 mph48%30.05 "Hg10 mi
10:52 AM71 °FScattered clouds.7 mph51%30.06 "Hg10 mi
9:52 AM69 °FScattered clouds.3 mph57%30.06 "Hg10 mi
8:52 AM66 °FPartly sunny.3 mph68%30.03 "Hg10 mi
7:52 AM62 °FPassing clouds.3 mph75%30.01 "Hg10 mi
6:52 AM63 °FPassing clouds.6 mph70%29.98 "Hg10 mi
5:52 AM66 °FPassing clouds.7 mph63%29.96 "Hg10 mi
4:52 AM68 °FPassing clouds.7 mph59%29.93 "Hg10 mi
3:52 AM70 °FPassing clouds.8 mph57%29.92 "Hg10 mi
2:52 AM72 °FMostly cloudy.9 mph71%29.90 "Hg10 mi
1:52 AM71 °FMostly cloudy.No wind84%29.89 "Hg10 mi
12:52 AM73 °FPassing clouds.No wind76%29.88 "Hg10 mi
11:52 PM
Sep 21
73 °FOvercast.3 mph76%29.89 "Hg10 mi
10:52 PM74 °FMostly cloudy.3 mph71%29.88 "Hg10 mi
Weather by CustomWeather, © 2014

See weather overviewHow to use our weather pages